TimeCST,TemperatureF,Dew PointF,Humidity,Sea Level PressureIn,VisibilityMPH,Wind Direction,Wind SpeedMPH,Gust SpeedMPH,PrecipitationIn,Events,Conditions,WindDirDegrees,DateUTC
12:15 AM,26.6,21.2,80,29.97,10.0,WSW,11.5,-,N/A,,Overcast,250,2013-02-03 06:15:00
12:35 AM,28.4,23.0,80,29.97,10.0,West,12.7,-,N/A,,Overcast,270,2013-02-03 06:35:00
12:55 AM,30.2,24.8,80,29.97,10.0,WNW,16.1,21.9,N/A,,Overcast,290,2013-02-03 06:55:00
1:15 AM,32.0,24.8,75,29.98,10.0,WNW,17.3,25.3,N/A,,Overcast,290,2013-02-03 07:15:00
1:35 AM,32.0,24.8,75,29.99,10.0,WNW,23.0,29.9,N/A,,Overcast,290,2013-02-03 07:35:00
1:55 AM,30.2,24.8,80,30.00,7.0,WNW,24.2,32.2,N/A,,Overcast,300,2013-02-03 07:55:00
2:15 AM,30.2,23.0,75,30.01,10.0,WNW,21.9,26.5,N/A,,Overcast,290,2013-02-03 08:15:00
2:35 AM,28.4,21.2,74,30.02,3.0,NW,24.2,31.1,N/A,Snow,Light Snow,310,2013-02-03 08:35:00
2:55 AM,26.6,21.2,80,30.04,1.8,WNW,21.9,35.7,N/A,Snow,Light Snow,300,2013-02-03 08:55:00
3:15 AM,26.6,19.4,74,30.05,2.5,WNW,24.2,32.2,N/A,Snow,Light Snow,300,2013-02-03 09:15:00
3:35 AM,26.6,19.4,74,30.06,3.0,NW,24.2,29.9,N/A,Snow,Light Snow,310,2013-02-03 09:35:00
3:55 AM,24.8,17.6,74,30.06,1.8,NW,25.3,32.2,N/A,Snow,Light Snow,310,2013-02-03 09:55:00
4:15 AM,24.8,17.6,74,30.07,2.5,NW,21.9,29.9,N/A,Snow,Light Snow,320,2013-02-03 10:15:00
4:35 AM,21.2,15.8,80,30.09,0.8,NW,25.3,38.0,N/A,Snow,Light Snow,320,2013-02-03 10:35:00
4:55 AM,21.2,12.2,68,30.09,5.0,NW,18.4,26.5,N/A,,Haze,320,2013-02-03 10:55:00
5:15 AM,21.2,14.0,74,30.10,2.5,NW,15.0,29.9,N/A,Snow,Light Snow,320,2013-02-03 11:15:00
5:35 AM,21.2,12.2,68,30.10,4.0,NW,20.7,26.5,N/A,,Haze,310,2013-02-03 11:35:00
5:55 AM,19.4,12.2,74,30.10,10.0,WNW,15.0,-,N/A,,Clear,290,2013-02-03 11:55:00
6:15 AM,19.4,12.2,74,30.11,10.0,WNW,15.0,18.4,N/A,,Clear,290,2013-02-03 12:15:00
6:35 AM,19.4,12.2,74,30.12,10.0,WNW,18.4,-,N/A,,Clear,300,2013-02-03 12:35:00
6:55 AM,17.6,10.4,73,30.12,10.0,WNW,15.0,-,N/A,,Clear,300,2013-02-03 12:55:00
7:15 AM,17.6,10.4,73,30.13,7.0,NW,15.0,23.0,N/A,,Clear,320,2013-02-03 13:15:00
7:35 AM,17.6,10.4,73,30.14,10.0,NW,13.8,-,N/A,,Clear,310,2013-02-03 13:35:00
7:55 AM,17.6,10.4,73,30.15,10.0,WNW,10.4,16.1,N/A,,Clear,300,2013-02-03 13:55:00
8:15 AM,17.6,10.4,73,30.14,10.0,West,9.2,-,N/A,,Clear,280,2013-02-03 14:15:00
8:35 AM,17.6,10.4,73,30.15,10.0,West,10.4,-,N/A,,Clear,270,2013-02-03 14:35:00
8:55 AM,19.4,10.4,68,30.16,10.0,West,9.2,-,N/A,,Clear,280,2013-02-03 14:55:00
9:15 AM,19.4,10.4,68,30.16,10.0,West,13.8,-,N/A,,Clear,280,2013-02-03 15:15:00
9:35 AM,21.2,10.4,63,30.17,10.0,West,12.7,-,N/A,,Clear,280,2013-02-03 15:35:00
9:55 AM,21.2,10.4,63,30.17,10.0,WNW,12.7,-,N/A,,Clear,290,2013-02-03 15:55:00
10:15 AM,21.2,10.4,63,30.17,10.0,WNW,12.7,-,N/A,,Clear,290,2013-02-03 16:15:00
10:35 AM,21.2,10.4,63,30.17,10.0,West,9.2,-,N/A,,Clear,280,2013-02-03 16:35:00
10:55 AM,23.0,10.4,59,30.16,10.0,WSW,10.4,-,N/A,,Clear,250,2013-02-03 16:55:00
11:15 AM,24.8,12.2,59,30.16,10.0,West,9.2,-,N/A,,Clear,270,2013-02-03 17:15:00
11:35 AM,24.8,12.2,59,30.17,10.0,West,8.1,-,N/A,,Scattered Clouds,260,2013-02-03 17:35:00
11:55 AM,24.8,12.2,59,30.15,10.0,West,9.2,-,N/A,,Overcast,260,2013-02-03 17:55:00
12:15 PM,24.8,12.2,59,30.15,10.0,West,6.9,-,N/A,,Overcast,260,2013-02-03 18:15:00
12:35 PM,26.6,12.2,55,30.13,10.0,West,5.8,-,N/A,,Overcast,260,2013-02-03 18:35:00
12:55 PM,26.6,12.2,55,30.12,10.0,WSW,8.1,-,N/A,,Overcast,240,2013-02-03 18:55:00
1:15 PM,28.4,12.2,51,30.11,10.0,WSW,10.4,-,N/A,,Overcast,240,2013-02-03 19:15:00
1:35 PM,28.4,12.2,51,30.09,10.0,SW,8.1,-,N/A,,Overcast,230,2013-02-03 19:35:00
1:55 PM,30.2,12.2,47,30.07,10.0,SSW,9.2,-,N/A,,Mostly Cloudy,210,2013-02-03 19:55:00
2:15 PM,30.2,12.2,47,30.06,10.0,SSW,8.1,-,N/A,,Scattered Clouds,210,2013-02-03 20:15:00
2:35 PM,30.2,12.2,47,30.06,10.0,SSW,10.4,-,N/A,,Clear,200,2013-02-03 20:35:00
2:55 PM,30.2,12.2,47,30.04,10.0,SSW,9.2,-,N/A,,Clear,210,2013-02-03 20:55:00
3:15 PM,32.0,12.2,44,30.04,10.0,SW,10.4,-,N/A,,Clear,220,2013-02-03 21:15:00
3:35 PM,32.0,12.2,44,30.02,10.0,SSW,8.1,-,N/A,,Clear,200,2013-02-03 21:35:00
3:55 PM,32.0,12.2,44,30.02,10.0,SW,9.2,-,N/A,,Clear,220,2013-02-03 21:55:00
4:15 PM,32.0,12.2,44,30.01,10.0,South,11.5,-,N/A,,Clear,190,2013-02-03 22:15:00
4:35 PM,30.2,14.0,51,30.00,10.0,South,10.4,-,N/A,,Clear,190,2013-02-03 22:35:00
4:55 PM,30.2,12.2,47,29.99,10.0,South,10.4,-,N/A,,Clear,190,2013-02-03 22:55:00
5:15 PM,28.4,12.2,51,29.98,10.0,South,8.1,-,N/A,,Clear,180,2013-02-03 23:15:00
5:35 PM,28.4,14.0,55,29.97,10.0,South,6.9,-,N/A,,Clear,170,2013-02-03 23:35:00
5:55 PM,26.6,12.2,55,29.97,10.0,South,5.8,-,N/A,,Clear,170,2013-02-03 23:55:00
6:15 PM,26.6,12.2,55,29.97,10.0,South,8.1,-,N/A,,Clear,170,2013-02-04 00:15:00
6:35 PM,26.6,14.0,59,29.96,10.0,South,6.9,-,N/A,,Clear,170,2013-02-04 00:35:00
6:55 PM,24.8,12.2,59,29.96,10.0,SSE,5.8,-,N/A,,Clear,160,2013-02-04 00:55:00
7:15 PM,24.8,12.2,59,29.95,10.0,SE,5.8,-,N/A,,Clear,140,2013-02-04 01:15:00
7:35 PM,24.8,14.0,64,29.95,10.0,SE,4.6,-,N/A,,Clear,140,2013-02-04 01:35:00
7:55 PM,24.8,12.2,59,29.94,10.0,SE,5.8,-,N/A,,Clear,140,2013-02-04 01:55:00
8:15 PM,24.8,12.2,59,29.94,10.0,SE,5.8,-,N/A,,Clear,140,2013-02-04 02:15:00
8:35 PM,24.8,12.2,59,29.93,10.0,SE,6.9,-,N/A,,Clear,140,2013-02-04 02:35:00
8:55 PM,24.8,12.2,59,29.92,10.0,SSE,6.9,-,N/A,,Clear,150,2013-02-04 02:55:00
9:15 PM,24.8,12.2,59,29.91,10.0,SSE,8.1,-,N/A,,Clear,160,2013-02-04 03:15:00
9:35 PM,24.8,14.0,64,29.89,10.0,SSE,10.4,-,N/A,,Clear,160,2013-02-04 03:35:00
9:55 PM,24.8,14.0,64,29.88,10.0,SSE,9.2,-,N/A,,Clear,150,2013-02-04 03:55:00
10:15 PM,24.8,14.0,64,29.86,10.0,SSE,9.2,-,N/A,,Clear,160,2013-02-04 04:15:00
10:35 PM,24.8,15.8,69,29.85,10.0,South,11.5,-,N/A,,Clear,170,2013-02-04 04:35:00
10:55 PM,26.6,15.8,64,29.83,10.0,South,10.4,-,N/A,,Clear,180,2013-02-04 04:55:00
11:15 PM,26.6,15.8,64,29.82,10.0,South,11.5,-,N/A,,Clear,180,2013-02-04 05:15:00
11:35 PM,26.6,17.6,69,29.81,10.0,South,12.7,-,N/A,,Clear,180,2013-02-04 05:35:00
11:55 PM,28.4,17.6,64,29.80,10.0,South,13.8,-,N/A,,Clear,180,2013-02-04 05:55:00